{"data":{"norad_id":48770,"intl_designator":"2021-045D","name":"ONEWEB-0237","alt_names":[],"object_type":"PAYLOAD","status":"ACTIVE","operator":null,"country":"UK","launch_date":"2021-05-28","launch_site_code":"VOSTO","launch_vehicle":null,"mission":null,"orbit_class":"UNKNOWN","rcs_meters":null,"size_class":null,"mass_kg":null,"dimensions":null,"purposes":["comms"],"wikipedia_slug":null,"has_3d_model":false,"image_url":null,"decayed_at":null,"tle_current":{"epoch":"2026-05-25T00:46:24.252096Z","epoch_age_seconds":65491,"freshness":"FRESH","line1":"1 48770U 21045D   26145.03222514 -.00000032  00000+0 -11967-3 0  9998","line2":"2 48770  87.8988 263.8199 0001699  93.3834 266.7490 13.15550258241342","mean_motion":13.15550258,"eccentricity":0.0001699,"inclination_deg":87.8988,"raan_deg":263.8199,"arg_perigee_deg":93.3834,"mean_anomaly_deg":266.749,"bstar":-0.00011967,"rev_number":24134,"period_min":109.45990023895,"perigee_km":1200.4763815012,"apogee_km":1203.0520319312,"semimajor_km":7579.9012067162,"source":"CELESTRAK","updated_at":"2026-05-25T13:38:22.441793Z"}}}